[[{"header":{"parameterUnit":"m.s-1","parameterCategory":1,"la1":30.2991,"la2":30.254,"lo1":-89.0895,"lo2":-89.0444,"dy":0.0017,"dx":0.0017,"nx":28,"ny":28,"refTime":"2025-08-13T21:00:00:Z","depth":0,"parameterNumber":2,"parameterNumberName":"U-component_of_WINDS"},"data":[0,0,0,0,0,0,0,0,0,0,0,0,0,0,0,0,0,0,0,0,0,0,0,0,0,0,0,0,0,0,0,0,0,0,0,0,0,0,0,0,0,0,0,0,0,0,0,0,0,0,0,0,0,0,0,0,0,0,3.9884,3.9886,0,4.0051,4.0053,4.0055,4.0009,4.0006,4.0002,3.9999,4.0173,4.018,4.0188,0,0,0,0,0,0,0,0,0,0,0,0,0,3.9526,3.9533,3.9884,3.9886,3.9888,4.0051,4.0053,4.0056,4.001,4.0006,4.0001,3.9998,4.017,4.0179,4.0189,0,0,0,0,0,0,0,0,0,0,0,0,0,3.9686,3.9535,3.9883,3.9885,3.9886,4.005,4.0053,4.0056,4.0011,4.0006,4.0,3.9996,4.0167,4.0178,4.019,4.0364,0,0,4.0226,4.0231,0,0,0,0,0,0,0,0,3.9677,3.9699,3.9882,3.9885,3.9887,4.0004,3.9991,4.0159,4.0012,3.9964,3.9999,3.9993,4.0121,4.0136,4.0179,4.0372,4.0379,4.0227,4.0234,4.0239,4.0242,0,0,0,0,0,0,0,3.9666,3.9692,3.995,3.9885,3.9888,3.9877,3.9895,4.0022,4.0069,3.9967,3.9964,3.9985,4.0121,4.0167,4.0182,4.0382,4.0226,4.0237,4.0244,4.0248,4.0726,4.0731,0,0,0,0,0,0,3.9653,3.9683,3.9945,3.9955,3.9767,3.9888,3.9907,3.9972,4.0067,4.0077,3.9989,3.9982,4.015,4.0169,4.0188,4.0397,4.0239,4.025,4.0256,4.072,4.0727,4.0733,0,0,0,0,0,0,3.9645,3.9677,3.9938,3.9818,3.9851,3.9899,3.9972,3.9978,4.0024,4.0083,4.0092,4.0028,4.0147,4.0172,4.032,4.0403,4.0255,4.0265,4.0713,4.0722,4.073,4.0818,0,0,0,0,0,0,3.9635,3.9674,3.974,3.982,3.9857,4.0067,3.9977,3.9985,4.0044,4.0036,4.0122,4.0131,4.0145,4.0303,4.0332,4.0416,4.0274,4.0706,4.0717,4.0727,4.0807,4.0828,4.0846,0,0,0,0,0,3.9623,3.9759,3.9744,3.9776,3.9941,4.0071,4.0093,4.0105,4.0051,4.0118,4.0156,4.0128,4.0389,4.0319,4.0351,4.044,4.0701,4.0714,4.0726,4.0799,4.0824,4.0845,0,0,0,0,0,0,3.9688,3.9769,3.9753,3.9919,3.9989,4.0063,4.0148,4.0131,4.0218,4.0207,4.022,4.0239,4.0391,4.043,4.035,4.0613,4.0537,4.0557,4.0581,4.0606,4.0624,4.0611,4.0284,0,0,0,0,0,3.9721,3.982,3.9886,4.0026,4.0062,4.0099,4.0157,4.016,4.0233,4.0262,4.0311,4.0383,4.0481,4.0546,4.064,4.0813,4.0831,4.089,4.0909,4.0925,4.0942,4.1036,4.1063,4.0775,4.0775,4.0775,0,0,3.9792,3.9848,3.991,4.004,4.0095,4.0197,4.0124,4.0236,4.0312,4.0279,4.0422,4.0461,4.0542,4.0704,4.0777,4.0741,4.1025,4.0941,4.0953,4.0962,4.1052,4.1079,4.1104,4.0784,4.0782,4.0781,0,0,3.9972,4.0025,4.0147,4.0203,4.0286,4.031,4.0339,4.0417,4.0442,4.0585,4.0562,4.0654,4.0823,4.0881,4.0934,4.1137,4.1115,4.1168,4.1267,4.1359,4.1382,4.1402,4.1474,4.15,4.1184,4.1184,4.1185,0,4.0049,4.0202,4.0212,4.0326,4.0384,4.0359,4.0483,4.0537,4.0646,4.0687,4.0645,4.0857,4.091,4.1085,4.1134,4.1178,4.1212,4.1157,4.1377,4.1398,4.1417,4.1486,4.1513,4.119,4.119,4.1189,4.1188,0,4.0292,4.0399,4.0488,4.0594,4.0662,4.0781,4.0809,4.0877,4.0875,4.0904,4.1051,4.1114,4.1219,4.1261,4.1261,4.1437,4.1412,4.1374,4.1298,4.145,4.1515,4.1541,4.1198,4.1196,4.1195,4.1193,0,0,4.0517,4.0628,4.066,4.0708,4.0798,4.0881,4.0999,4.1102,4.116,4.1237,4.1335,4.1479,4.1445,4.1504,4.151,4.1591,4.1747,4.1543,4.1545,4.1578,4.1945,4.1972,4.2003,4.1734,4.1739,4.1743,4.1938,0,4.0705,4.0911,4.0924,4.1111,4.121,4.1188,4.129,4.1357,4.1387,4.1476,4.151,4.1611,4.1558,4.1593,4.1673,4.1712,4.1821,4.1698,4.1826,4.183,4.1805,4.2037,4.2066,4.2247,4.1964,4.1968,4.1971,0,4.0951,4.1035,4.1232,4.1308,4.135,4.1441,4.1537,4.1622,4.1697,4.1714,4.178,4.1775,4.1896,4.1817,4.1984,4.19,4.1953,4.198,4.1988,4.1999,4.1909,4.2054,4.2305,4.2332,4.2011,4.2008,4.2005,0,4.1095,4.1257,4.1395,4.1437,4.153,4.1595,4.1636,4.1707,4.1768,4.1852,4.1892,4.1989,4.2042,4.2118,4.2139,4.2079,4.2306,4.2228,4.2323,4.2323,4.2371,4.2368,4.2633,4.2407,4.2407,4.2406,4.2406,0,4.1303,4.1424,4.1461,4.1546,4.1681,4.1696,4.1829,4.1867,4.193,4.2022,4.201,4.2097,4.212,4.2212,4.2229,4.2365,4.2389,4.2406,4.2409,4.2407,4.2405,4.2441,4.2429,4.2413,4.2412,4.241,4.2409,0,4.1485,4.1515,4.1665,4.174,4.1762,4.1858,4.1923,4.2005,4.2034,4.2151,4.2179,4.2225,4.2332,4.2361,4.249,4.2502,4.2661,4.2653,4.2635,4.2635,4.2728,4.2718,4.3026,4.3067,4.2814,4.2817,4.2819,0,4.1615,4.1708,4.1793,4.1854,4.1898,4.1996,4.2059,4.2077,4.2142,4.2235,4.2307,4.2412,4.2497,4.267,4.2715,4.2813,4.2807,4.2908,4.2821,4.2816,4.2807,4.2801,4.281,4.2924,4.2926,4.2929,4.293,0,4.1843,4.1853,4.1943,4.2039,4.2113,4.219,4.2263,4.2314,4.2342,4.2417,4.2526,4.2592,4.2723,4.2828,4.2928,4.2971,4.2956,4.2957,4.2984,4.2982,4.2968,4.2976,4.2679,4.295,4.2948,4.2947,4.2946,4.2945,4.2002,4.2083,4.2156,4.2257,4.2314,4.2383,4.2464,4.2503,4.2594,4.2701,4.2707,4.2826,4.2899,4.3031,4.308,4.3174,4.3143,4.3183,4.3193,4.3202,4.3209,4.2954,4.3192,4.3191,4.3191,4.3191,4.319,0,4.2228,4.2274,4.2367,4.2469,4.2549,4.2528,4.2608,4.2676,4.278,4.285,4.2934,4.306,4.3162,4.3215,4.3316,4.3381,4.3376,4.3407,4.3402,4.3412,4.3231,4.3197,4.3409,4.3408,4.3408,4.3408,4.3408,4.3408,4.2355,4.2491,4.251,4.2675,4.272,4.2835,4.2883,4.2947,4.3002,4.3143,4.3227,4.3261,4.3325,4.3431,4.3523,4.3536,4.3574,4.3608,4.3617,4.3447,4.3425,4.3403,4.3371,4.3616,4.3617,4.379,4.3792,4.3793]},{"header":{"parameterUnit":"m.s-1","parameterCategory":1,"la1":30.2991,"la2":30.254,"lo1":-89.0895,"lo2":-89.0444,"dy":0.0017,"dx":0.0017,"nx":28,"ny":28,"refTime":"2025-08-13T21:00:00:Z","depth":0,"parameterNumber":3,"parameterNumberName":"V-component_of_WINDS"},"data":[0,0,0,0,0,0,0,0,0,0,0,0,0,0,0,0,0,0,0,0,0,0,0,0,0,0,0,0,0,0,0,0,0,0,0,0,0,0,0,0,0,0,0,0,0,0,0,0,0,0,0,0,0,0,0,0,0,0,0.8004,0.8005,0,0.8109,0.811,0.8112,0.8117,0.8116,0.8115,0.8113,0.8227,0.8232,0.8236,0,0,0,0,0,0,0,0,0,0,0,0,0,0.7813,0.7816,0.8004,0.8005,0.8006,0.8109,0.811,0.8112,0.8117,0.8116,0.8114,0.8113,0.8226,0.8231,0.8236,0,0,0,0,0,0,0,0,0,0,0,0,0,0.7905,0.7817,0.8004,0.8021,0.8024,0.8109,0.811,0.8112,0.8118,0.8116,0.8114,0.8112,0.8224,0.8231,0.8237,0.8313,0,0,0.8256,0.8259,0,0,0,0,0,0,0,0,0.79,0.7912,0.8017,0.802,0.8023,0.8098,0.8085,0.818,0.8118,0.8082,0.8113,0.8111,0.8186,0.8196,0.822,0.8318,0.8323,0.8257,0.826,0.8263,0.8265,0,0,0,0,0,0,0,0.7893,0.7907,0.8046,0.8019,0.8023,0.8026,0.8037,0.8103,0.8144,0.8085,0.8086,0.8098,0.8188,0.8214,0.8222,0.8325,0.8256,0.8262,0.8266,0.8268,0.8491,0.8493,0,0,0,0,0,0,0.7883,0.7902,0.8042,0.8049,0.7955,0.8031,0.8043,0.8076,0.8143,0.8151,0.8099,0.8098,0.8204,0.8215,0.8226,0.832,0.8263,0.8269,0.8272,0.8489,0.8492,0.8494,0,0,0,0,0,0,0.7878,0.7895,0.8038,0.7976,0.7994,0.8036,0.8073,0.8079,0.8105,0.8153,0.8161,0.8118,0.8203,0.8218,0.8291,0.8324,0.8272,0.8277,0.8487,0.849,0.8493,0.8508,0,0,0,0,0,0,0.7873,0.7893,0.7922,0.7976,0.7997,0.8099,0.8075,0.8082,0.8115,0.8114,0.8173,0.8181,0.8202,0.8281,0.8297,0.8332,0.8282,0.8484,0.8488,0.8492,0.8505,0.8512,0.8517,0,0,0,0,0,0.7866,0.7923,0.7923,0.794,0.8033,0.8101,0.8114,0.8135,0.8118,0.8147,0.8178,0.8179,0.8318,0.8289,0.8307,0.8344,0.8482,0.8487,0.8492,0.8502,0.851,0.8517,0,0,0,0,0,0,0.7874,0.7931,0.7931,0.8007,0.8049,0.8102,0.814,0.8143,0.8192,0.8189,0.8216,0.8229,0.8302,0.833,0.8297,0.8421,0.8398,0.8407,0.84,0.8408,0.8414,0.8407,0.8288,0,0,0,0,0,0.7884,0.7933,0.798,0.8043,0.8064,0.8098,0.8129,0.8141,0.8186,0.8205,0.8241,0.8287,0.8341,0.8376,0.8428,0.8509,0.8522,0.8543,0.8549,0.8554,0.8562,0.8607,0.8617,0.851,0.851,0.851,0,0,0.7907,0.7943,0.7973,0.8045,0.8079,0.8131,0.8113,0.8169,0.8208,0.8214,0.8285,0.8313,0.8366,0.8443,0.8479,0.8469,0.8594,0.856,0.8564,0.8569,0.8613,0.8623,0.8632,0.8513,0.8513,0.8512,0,0,0.7974,0.8006,0.8062,0.8095,0.8146,0.8168,0.8182,0.8234,0.8252,0.8323,0.8329,0.8377,0.8469,0.8506,0.8537,0.8617,0.862,0.8633,0.8666,0.871,0.8719,0.8726,0.8756,0.8766,0.8641,0.8641,0.8641,0,0.7996,0.8072,0.8091,0.8146,0.8178,0.8183,0.8241,0.8273,0.8339,0.8362,0.8349,0.8464,0.85,0.8586,0.8606,0.863,0.8648,0.8628,0.8715,0.8723,0.8731,0.8759,0.877,0.8642,0.8642,0.8642,0.8642,0,0.8097,0.815,0.8189,0.825,0.8287,0.8343,0.8371,0.8406,0.8415,0.8439,0.8512,0.8555,0.8616,0.8637,0.8648,0.8725,0.8717,0.871,0.8687,0.8742,0.8769,0.878,0.8644,0.8643,0.8643,0.8643,0,0,0.8175,0.8243,0.8258,0.8285,0.8341,0.8383,0.844,0.8497,0.8527,0.8572,0.8622,0.8698,0.8691,0.8726,0.8741,0.8779,0.8841,0.8767,0.8768,0.878,0.893,0.8937,0.8949,0.8842,0.8844,0.8846,0.8926,0,0.8249,0.8347,0.8365,0.8452,0.8502,0.8507,0.8556,0.8597,0.8621,0.8668,0.8695,0.8749,0.8735,0.8756,0.8794,0.8825,0.8871,0.8819,0.889,0.8893,0.8878,0.8963,0.897,0.9044,0.8937,0.8939,0.894,0,0.8349,0.8394,0.8486,0.8534,0.8556,0.8599,0.8653,0.8697,0.8744,0.8758,0.8797,0.8806,0.8867,0.884,0.8925,0.8889,0.8919,0.8939,0.8942,0.8951,0.8921,0.8976,0.9068,0.9079,0.8957,0.8955,0.8954,0,0.8398,0.8481,0.8547,0.857,0.8628,0.8659,0.8685,0.8729,0.8762,0.881,0.8832,0.8887,0.8917,0.896,0.8985,0.8963,0.9068,0.9044,0.9084,0.9083,0.9108,0.9106,0.9207,0.9124,0.9124,0.9124,0.9124,0,0.848,0.8536,0.8569,0.861,0.8673,0.8693,0.8755,0.8781,0.882,0.8867,0.8875,0.8919,0.8949,0.8998,0.9017,0.9085,0.9099,0.9114,0.9119,0.9114,0.9112,0.9135,0.9131,0.9127,0.9126,0.9126,0.9125,0,0.8545,0.857,0.8641,0.8689,0.8703,0.8747,0.8789,0.883,0.8852,0.8912,0.8927,0.8964,0.9021,0.905,0.9122,0.9136,0.9213,0.9214,0.9197,0.9199,0.9238,0.9234,0.9359,0.9377,0.9281,0.9281,0.9282,0,0.8597,0.864,0.8691,0.8722,0.8748,0.8798,0.8831,0.8853,0.8887,0.8943,0.8977,0.9034,0.9081,0.9174,0.9208,0.9264,0.9267,0.9307,0.9276,0.927,0.927,0.9267,0.9272,0.9313,0.9314,0.9315,0.9315,0,0.8686,0.8695,0.8742,0.8793,0.8831,0.8873,0.8914,0.8939,0.8968,0.9006,0.9064,0.9101,0.9173,0.9231,0.9289,0.9317,0.9322,0.9324,0.9337,0.9333,0.9322,0.933,0.9213,0.9322,0.9321,0.9321,0.9321,0.932,0.8747,0.8785,0.8827,0.8879,0.8911,0.8949,0.8989,0.9016,0.9064,0.9123,0.9133,0.9195,0.9241,0.9318,0.9349,0.9399,0.939,0.9408,0.9413,0.9417,0.942,0.9312,0.9409,0.9409,0.9409,0.9409,0.9409,0,0.8838,0.8864,0.8911,0.8967,0.9008,0.9005,0.9051,0.9086,0.9139,0.918,0.9225,0.9292,0.9348,0.9386,0.9443,0.9475,0.9479,0.949,0.9489,0.9495,0.9424,0.9408,0.9486,0.9486,0.9486,0.9486,0.9486,0.9486,0.889,0.8954,0.8969,0.905,0.9077,0.9136,0.9162,0.9197,0.923,0.9303,0.9349,0.9372,0.9412,0.9472,0.9523,0.9533,0.9554,0.9565,0.9576,0.9508,0.95,0.9493,0.9478,0.957,0.957,0.9643,0.9644,0.9644]}]]